Weather in Rekhovot

Israel     31°53′38″N   34°48′40″E
temp.,
°C
wind,
m/s
gust,
m/s
humid.,
%
clouds,
%
prec.,
mm/h
press.,
hPa
HPBL,
m
20 september, mon
mon2000:00+27n23610 0.0 1014432
03:00+26ne12640 0.0 1013369
06:00+25ene12680 0.0 1014248
09:00+27s10620 0.0 1014348
12:00+29nw43530 0.0 1014620
15:00+30nnw66540 0.0 1013631
18:00+29n67580 0.0 1012572
21:00+28n45630 0.0 1013346
21 september, tue
tue2100:00+27nne33680 0.0 1013348
03:00+26nne24700 0.0 1013356
06:00+26ene12730 0.0 1013236
09:00+27ne12640 0.0 1013413
12:00+30nw44520 0.0 1013687
15:00+30nw55510 0.0 1011645
18:00+29nnw56570 0.0 1011589
21:00+28nnw33590 0.0 1012373
22 september, wed
wed2200:00+27wnw12640 0.0 1011357
03:00+26sw12690 0.0 1010353
06:00+25s33720 0.0 1010297
09:00+27ssw44670 0.0 1010699
12:00+29wsw54590 0.0 1010789
15:00+29w66570 0.0 1008883
18:00+28w56610 0.0 1008835
21:00+27w45650 0.0 1008615
23 september, thu
thu2300:00+27wsw46610 0.0 1008655
03:00+26w57580 0.0 1007832
06:00+26wsw67610 0.0 1007897
09:00+27wsw78550 0.0 10081380
12:00+28w78520 0.0 10081462
15:00+28w88530 0.0 10081463
18:00+27wnw66560 0.0 10081267
21:00+26wnw45611 0.0 1008935
24 september, fri
fri2400:00+26w56620 0.2 1009993
03:00+25wnw676964 1.5 1009805
06:00+25wnw6761100 0.8 10091201
09:00+24w7758100 0.9 10101460
12:00+26w785159 0.0 10111709
15:00+26w665085 0.0 10111772
18:00+25w44480 0.0 10111634
21:00+24nw22522 0.0 10131116